Wind_Speed
15 22 28 28 29 28 27 26 26 26 27 26 26 24 20 17 17 14 12 10 8 7 8 8 7 7 11 17 16 14 8 7
17 21 28 30 30 29 29 28 28 29 29 29 26 22 19 17 16 15 15 12 11 10 10 9 8 7 14 18 16 11 7 8
20 20 28 30 29 29 29 27 29 30 30 28 26 23 22 20 18 19 17 14 13 12 11 9 8 10 21 17 14 17 16 7
22 22 25 29 30 31 31 31 30 30 30 27 25 24 22 25 25 21 19 16 15 15 14 12 11 17 20 6 11 15 15 11
25 25 24 27 33 31 35 35 33 33 29 26 27 29 29 27 23 20 19 17 18 17 17 13 14 22 15 8 10 13 13 12
26 27 30 32 35 34 38 37 39 35 31 30 31 28 27 26 23 20 19 20 20 17 18 16 20 23 20 4 9 11 17 16
29 27 32 36 34 38 38 39 36 34 33 32 30 31 26 25 21 22 22 22 20 20 20 21 21 21 13 13 10 9 14 16
31 31 34 37 40 37 38 38 36 35 33 37 35 32 29 27 27 27 24 22 21 19 19 22 26 17 21 20 15 15 18 18
34 37 35 41 39 38 36 36 35 35 33 33 31 30 29 29 29 28 23 23 23 21 21 21 21 24 33 29 21 16 14 16
34 33 39 43 43 40 38 37 35 35 33 35 33 33 31 31 29 30 26 25 25 24 24 26 26 26 29 29 25 20 15 10
33 30 37 43 42 44 41 39 37 36 35 35 35 36 35 34 29 27 25 25 26 28 30 30 28 25 24 22 20 17 16 15
29 29 27 42 42 42 40 41 40 39 40 37 35 35 37 35 29 28 26 26 28 30 31 28 29 28 26 22 19 18 17 15
33 33 28 34 43 43 44 45 44 42 42 38 34 36 40 36 33 31 31 31 36 33 35 33 31 31 32 25 19 13 11 13
29 27 25 30 37 46 45 42 44 43 42 40 38 37 37 37 35 35 32 35 37 38 37 37 35 38 34 27 16 13 10 10
26 24 24 28 32 36 41 42 42 43 42 43 41 40 39 40 37 37 33 38 39 40 40 42 42 39 33 13 13 10 21 14
16 21 22 26 30 34 34 44 45 46 47 46 44 43 41 42 41 41 35 40 43 42 43 42 41 42 31 16 17 18 14 15
5 20 25 27 25 31 33 35 44 44 43 41 42 44 46 45 43 44 39 45 45 44 45 43 42 40 37 21 18 15 22 24
14 11 20 28 28 28 31 33 36 41 39 40 43 43 46 45 47 49 43 46 45 46 45 46 42 38 36 33 26 23 25 22
22 22 20 19 28 29 30 32 33 43 43 44 43 43 44 46 50 52 48 48 47 46 46 45 39 34 37 35 28 23 20 16
23 21 19 23 27 31 33 33 34 39 46 45 46 50 50 47 50 50 50 47 48 45 43 41 40 36 34 29 28 26 20 22
Wind_Direction
193 197 197 198 197 198 197 196 195 195 196 197 202 203 206 218 210 199 189 191 189 189 183 177 165 143 129 125 112 109 104 79
206 198 197 197 198 201 201 202 201 199 198 203 203 209 211 216 207 197 196 195 189 185 179 175 167 142 123 124 116 113 164 182
207 201 198 198 201 203 206 210 209 206 205 204 208 201 209 209 207 200 201 193 191 179 174 172 156 132 125 135 150 145 155 169
203 202 196 198 202 204 206 209 210 209 206 205 203 206 207 210 207 196 200 195 195 181 177 171 155 138 132 151 154 167 175 140
207 203 201 200 207 204 206 207 207 208 211 209 218 211 206 212 206 200 194 196 190 184 178 182 164 146 124 182 197 207 210 164
211 209 204 206 210 208 204 206 209 211 210 213 217 213 209 210 203 206 196 196 189 181 177 169 166 165 150 146 230 224 216 186
212 210 210 211 210 209 207 212 211 210 211 217 216 211 208 209 196 200 191 200 187 182 187 190 192 178 184 177 202 212 198 177
215 208 212 212 216 213 212 211 211 217 216 212 208 214 217 209 188 204 200 202 198 199 198 193 185 188 169 173 176 187 192 190
232 208 213 217 214 216 213 212 217 218 216 215 208 205 213 219 218 210 202 197 202 195 191 182 181 169 167 170 163 196 190 186
235 220 214 219 222 216 219 216 217 218 218 219 213 201 211 216 221 210 203 204 198 188 171 180 183 180 177 178 185 184 173 176
232 224 220 222 223 224 222 221 218 216 219 217 217 211 212 223 223 203 202 202 188 187 181 190 183 179 172 173 173 170 170 178
239 238 232 224 219 220 223 219 219 219 219 221 224 222 221 220 203 204 207 196 183 188 182 187 190 173 173 168 161 169 181 180
238 240 240 223 218 220 219 220 214 216 217 221 223 224 217 215 208 214 199 196 186 184 185 177 175 175 165 158 165 170 177 175
227 237 243 236 232 231 228 223 222 229 221 224 222 227 218 212 210 212 206 194 191 191 189 177 182 187 174 163 146 144 172 150
225 233 246 245 240 233 236 232 224 219 218 218 223 223 219 211 207 215 205 192 194 197 195 190 187 191 192 168 149 166 160 179
248 256 251 252 247 242 239 239 231 226 222 223 225 220 217 212 212 215 204 193 196 200 197 199 199 192 191 169 180 196 156 169
358 259 248 250 251 248 247 244 240 238 230 226 224 218 217 215 207 212 205 199 200 202 201 197 205 198 190 180 189 181 189 174
328 282 262 251 251 250 253 247 246 231 218 213 219 222 217 214 206 211 207 199 203 202 204 201 205 198 196 189 194 178 186 179
314 307 275 274 255 261 265 258 249 239 226 216 214 215 218 216 209 208 209 204 205 204 205 203 201 197 199 196 198 186 198 203
312 293 286 268 266 266 263 259 253 241 229 216 214 218 225 222 210 207 209 206 206 204 204 201 195 194 195 193 186 182 193 204
Height
1469 1474 1476 1480 1483 1487 1490 1493 1497 1500 1504 1508 1511 1514 1518 1519 1523 1526 1530 1533 1535 1538 1540 1542 1545 1546 1547 1551 1554 1553 1550 1547
1469 1471 1477 1479 1482 1485 1488 1491 1494 1497 1500 1505 1508 1513 1515 1516 1521 1525 1527 1529 1532 1536 1539 1542 1544 1547 1549 1552 1554 1553 1552 1548
1470 1471 1473 1476 1482 1485 1488 1493 1494 1496 1498 1502 1506 1510 1511 1515 1518 1522 1524 1525 1530 1533 1538 1542 1544 1547 1549 1550 1550 1550 1546 1549
1465 1469 1471 1475 1477 1480 1485 1489 1492 1496 1498 1500 1503 1506 1510 1512 1514 1518 1521 1523 1528 1530 1535 1540 1542 1546 1549 1547 1550 1550 1548 1550
1462 1466 1468 1471 1473 1476 1478 1483 1489 1491 1497 1499 1504 1503 1504 1507 1512 1515 1517 1521 1526 1529 1533 1537 1540 1544 1547 1547 1550 1552 1550 1550
1459 1462 1465 1466 1467 1472 1475 1477 1482 1487 1494 1495 1499 1502 1503 1504 1507 1512 1517 1518 1523 1528 1532 1535 1538 1539 1545 1546 1548 1550 1549 1550
1456 1459 1461 1461 1463 1465 1469 1474 1478 1483 1488 1492 1495 1497 1502 1503 1505 1507 1512 1515 1520 1525 1529 1533 1538 1535 1539 1544 1543 1545 1549 1550
1451 1456 1457 1456 1457 1459 1465 1469 1474 1478 1482 1487 1490 1492 1497 1502 1504 1503 1507 1512 1517 1522 1526 1531 1536 1535 1533 1538 1539 1541 1548 1546
1441 1448 1453 1452 1453 1456 1460 1466 1470 1474 1478 1483 1486 1489 1492 1498 1502 1503 1505 1509 1513 1519 1524 1528 1533 1534 1533 1534 1535 1538 1544 1543
1434 1439 1446 1446 1449 1453 1457 1461 1465 1471 1475 1478 1482 1484 1487 1490 1499 1499 1503 1506 1510 1515 1521 1524 1527 1531 1532 1534 1536 1539 1540 1540
1428 1434 1440 1443 1445 1448 1453 1457 1460 1465 1469 1472 1476 1479 1483 1488 1492 1496 1498 1503 1508 1510 1516 1519 1522 1527 1532 1534 1536 1539 1539 1539
1425 1430 1436 1440 1440 1444 1447 1452 1454 1458 1463 1466 1470 1474 1478 1482 1486 1492 1494 1498 1505 1507 1513 1515 1517 1521 1528 1532 1536 1535 1538 1535
1419 1423 1430 1434 1435 1437 1441 1444 1446 1451 1456 1459 1464 1468 1471 1474 1481 1485 1489 1492 1499 1503 1507 1511 1515 1518 1521 1528 1534 1535 1537 1536
1413 1419 1424 1430 1432 1434 1436 1440 1443 1446 1449 1452 1456 1460 1464 1469 1473 1479 1482 1487 1494 1498 1501 1506 1511 1511 1515 1521 1530 1533 1538 1539
1411 1416 1419 1424 1428 1431 1434 1436 1438 1439 1441 1444 1448 1453 1457 1461 1466 1472 1476 1482 1486 1490 1494 1498 1502 1508 1512 1514 1518 1526 1534 1538
1411 1412 1416 1419 1422 1426 1429 1430 1431 1434 1435 1436 1441 1443 1451 1454 1460 1464 1470 1474 1478 1483 1487 1490 1494 1499 1509 1511 1509 1513 1524 1537
1413 1415 1411 1411 1414 1419 1425 1427 1429 1431 1432 1432 1433 1438 1442 1447 1451 1458 1461 1465 1470 1475 1481 1484 1488 1492 1498 1506 1508 1510 1516 1522
1408 1411 1412 1408 1408 1412 1415 1420 1426 1426 1426 1427 1427 1429 1434 1440 1443 1450 1454 1458 1461 1467 1474 1478 1482 1488 1492 1498 1502 1507 1510 1514
1408 1410 1411 1409 1407 1407 1409 1412 1418 1421 1420 1421 1421 1422 1426 1431 1437 1441 1445 1451 1455 1461 1468 1472 1478 1484 1487 1492 1497 1505 1508 1510
1407 1406 1406 1405 1403 1402 1402 1406 1408 1411 1413 1415 1414 1413 1415 1424 1431 1436 1438 1444 1450 1456 1462 1468 1475 1479 1484 1489 1494 1500 1506 1505